Date String (YYYY-MM-DD hh:mm:ss) UTC,Instrument flags,Ambient pressure (hPa),Sample flow (lpm),Bypass flow (lpm),Sample temperature (°C),Ambient temperature (°C),ASC tube jacket temperature (°C),LED temperature (°C),Box temperature (°C),Sample RH (%),Span deviation,Mass concentration (μg/m³),Mass concentration (μg/m³),Mass concentration (μg/m³)
DateTimeUTC,F1_M11,P_M11,Q1_M11,Q2_M11,T1_M11,T2_M11,T3_M11,T4_M11,T5_M11,U1_M11,ZSPAN_M11,X0_M11,X2_M11,X1_M11
2022-07-09 11:00:00,,0832.3,5.00,0.00,30.1,28.0,00.0,38.7,31.9,24.8,0000.0,0010.11,0004.31,0003.68
2022-07-09 11:01:00,,0832.3,5.00,0.00,30.0,27.6,00.0,38.7,31.8,24.7,0000.0,0010.04,0004.28,0003.66
2022-07-09 11:02:00,,0832.3,5.01,0.00,29.9,27.6,00.0,38.7,31.6,24.5,0000.0,0009.57,0004.26,0003.64
2022-07-09 11:03:00,,0832.3,5.00,0.00,29.9,27.6,00.0,38.7,31.6,25.0,0000.0,0009.49,0004.24,0003.62
2022-07-09 11:04:00,,0832.4,5.00,0.00,29.8,27.7,00.0,38.7,31.5,25.5,0000.0,0009.29,0004.24,0003.62
2022-07-09 11:05:00,,0832.4,5.00,0.00,29.8,27.9,00.0,38.7,31.5,25.5,0000.0,0009.09,0004.23,0003.63
2022-07-09 11:06:00,,0832.4,5.00,0.00,29.8,28.0,00.0,38.7,31.5,25.5,0000.0,0008.65,0004.25,0003.65
2022-07-09 11:07:00,,0832.3,5.00,0.00,29.8,28.1,00.0,38.7,31.6,25.3,0000.0,0009.01,0004.25,0003.66
2022-07-09 11:08:00,,0832.3,4.99,0.00,29.8,28.2,00.0,38.7,31.6,25.3,0000.0,0010.33,0004.28,0003.69
2022-07-09 11:09:00,,0832.3,5.01,0.00,29.8,28.3,00.0,38.7,31.7,25.1,0000.0,0011.05,0004.30,0003.70
2022-07-09 11:10:00,,0832.3,4.99,0.00,29.8,28.4,00.0,38.7,31.7,25.2,0000.0,0010.55,0004.26,0003.69
2022-07-09 11:11:00,,0832.3,5.00,0.00,29.9,28.5,00.0,38.7,31.7,24.9,0000.0,0010.68,0004.30,0003.68
2022-07-09 11:12:00,,0832.3,4.99,0.00,29.9,28.6,00.0,38.7,31.7,24.6,0000.0,0011.13,0004.32,0003.67
2022-07-09 11:13:00,,0832.3,5.00,0.00,29.9,28.7,00.0,38.7,31.7,24.5,0000.0,0011.56,0004.37,0003.68
2022-07-09 11:14:00,,0832.4,5.01,0.00,29.9,28.7,00.0,38.7,31.7,24.5,0000.0,0011.75,0004.41,0003.68
2022-07-09 11:15:00,,0832.4,5.00,0.00,29.9,28.8,00.0,38.7,31.8,24.5,0000.0,0012.12,0004.43,0003.68
2022-07-09 11:16:00,,0832.4,5.00,0.00,30.0,28.8,00.0,38.7,31.8,24.5,0000.0,0012.59,0004.47,0003.69
2022-07-09 11:17:00,,0832.4,4.99,0.00,30.0,28.9,00.0,38.7,31.9,24.4,0000.0,0012.67,0004.51,0003.70
2022-07-09 11:18:00,,0832.5,5.00,0.00,30.0,28.9,00.0,38.7,31.9,24.5,0000.0,0012.33,0004.54,0003.70
2022-07-09 11:19:00,,0832.5,5.01,0.00,30.0,28.9,00.0,38.8,31.9,24.4,0000.0,0011.32,0004.55,0003.69
2022-07-09 11:20:00,,0832.5,5.01,0.00,30.0,29.0,00.0,38.8,31.9,24.5,0000.0,0010.99,0004.55,0003.70
2022-07-09 11:21:00,,0832.5,5.00,0.00,30.1,29.0,00.0,38.8,32.0,24.5,0000.0,0011.83,0004.58,0003.72
2022-07-09 11:22:00,,0832.5,4.99,0.00,30.1,29.0,00.0,38.8,32.0,24.3,0000.0,0012.11,0004.63,0003.74
2022-07-09 11:23:00,,0832.5,5.00,0.00,30.1,29.1,00.0,38.8,32.0,24.0,0000.0,0011.87,0004.66,0003.75
2022-07-09 11:24:00,,0832.5,5.00,0.00,30.1,29.1,00.0,38.9,32.0,24.2,0000.0,0011.91,0004.67,0003.77
2022-07-09 11:25:00,,0832.5,5.00,0.00,30.1,29.1,00.0,38.9,32.0,24.3,0000.0,0012.08,0004.65,0003.78
2022-07-09 11:26:00,,0832.6,5.00,0.00,30.2,29.0,00.0,38.9,32.0,24.2,0000.0,0011.78,0004.64,0003.79
2022-07-09 11:27:00,,0832.6,4.99,0.00,30.1,28.2,00.0,38.8,31.9,24.4,0000.0,0011.50,0004.63,0003.78
2022-07-09 11:28:00,,0832.5,4.99,0.00,30.1,27.6,00.0,38.8,31.8,24.3,0000.0,0011.47,0004.60,0003.78
2022-07-09 11:29:00,,0832.5,5.01,0.00,30.0,27.5,00.0,38.8,31.7,24.2,0000.0,0011.32,0004.57,0003.79
2022-07-09 11:30:00,,0832.6,5.00,0.00,29.9,27.6,00.0,38.7,31.6,23.9,0000.0,0010.85,0004.51,0003.79
2022-07-09 11:31:00,,0832.6,5.01,0.00,29.9,27.7,00.0,38.7,31.6,23.8,0000.0,0010.60,0004.49,0003.78
2022-07-09 11:32:00,,0832.6,5.00,0.00,29.8,27.8,00.0,38.7,31.6,23.6,0000.0,0010.63,0004.46,0003.76
2022-07-09 11:33:00,,0832.6,5.00,0.00,29.8,28.0,00.0,38.7,31.6,23.7,0000.0,0010.26,0004.39,0003.74
2022-07-09 11:34:00,,0832.6,5.00,0.00,29.8,28.1,00.0,38.7,31.6,23.8,0000.0,0010.11,0004.33,0003.73
2022-07-09 11:35:00,,0832.6,5.00,0.00,29.8,28.2,00.0,38.7,31.6,23.9,0000.0,0009.71,0004.30,0003.73
2022-07-09 11:36:00,,0832.6,5.00,0.00,29.8,28.3,00.0,38.7,31.6,24.0,0000.0,0009.38,0004.31,0003.71
2022-07-09 11:37:00,,0832.6,4.99,0.00,29.8,28.4,00.0,38.7,31.7,24.0,0000.0,0009.34,0004.30,0003.71
2022-07-09 11:38:00,,0832.6,5.00,0.00,29.9,28.5,00.0,38.7,31.7,24.0,0000.0,0009.27,0004.28,0003.71
2022-07-09 11:39:00,,0832.6,5.01,0.00,29.9,28.6,00.0,38.7,31.7,23.9,0000.0,0009.85,0004.23,0003.69
2022-07-09 11:40:00,,0832.6,5.01,0.00,29.9,28.6,00.0,38.7,31.8,23.9,0000.0,0009.94,0004.24,0003.68
2022-07-09 11:41:00,,0832.7,4.99,0.00,29.9,28.7,00.0,38.7,31.7,23.7,0000.0,0009.98,0004.27,0003.67
2022-07-09 11:42:00,,0832.6,4.99,0.00,29.9,28.7,00.0,38.7,31.8,23.6,0000.0,0010.00,0004.28,0003.66
2022-07-09 11:43:00,,0832.7,4.99,0.00,29.9,28.8,00.0,38.7,31.8,23.4,0000.0,0009.88,0004.30,0003.64
2022-07-09 11:44:00,,0832.7,5.00,0.00,30.0,28.8,00.0,38.7,31.8,23.3,0000.0,0010.89,0004.33,0003.64
2022-07-09 11:45:00,,0832.7,5.00,0.00,30.0,28.9,00.0,38.7,31.9,23.3,0000.0,0011.59,0004.32,0003.64
2022-07-09 11:46:00,,0832.7,5.00,0.00,30.0,28.9,00.0,38.8,31.9,23.5,0000.0,0011.57,0004.30,0003.63
2022-07-09 11:47:00,,0832.6,5.00,0.00,30.0,28.9,00.0,38.8,31.9,23.7,0000.0,0011.49,0004.25,0003.60
2022-07-09 11:48:00,,0832.6,5.00,0.00,30.0,29.0,00.0,38.8,31.9,23.4,0000.0,0011.42,0004.23,0003.58
2022-07-09 11:49:00,,0832.7,5.00,0.00,30.1,29.0,00.0,38.8,32.0,23.1,0000.0,0011.28,0004.20,0003.55
2022-07-09 11:50:00,,0832.6,5.00,0.00,30.1,29.0,00.0,38.8,32.0,22.9,0000.0,0010.50,0004.20,0003.53
2022-07-09 11:51:00,,0832.6,5.01,0.00,30.1,29.0,00.0,38.9,32.0,22.9,0000.0,0010.87,0004.15,0003.51
2022-07-09 11:52:00,,0832.6,5.00,0.00,30.1,29.1,00.0,38.9,32.0,22.6,0000.0,0010.82,0004.10,0003.47
2022-07-09 11:53:00,,0832.6,4.99,0.00,30.1,29.1,00.0,38.9,32.0,22.4,0000.0,0010.85,0004.05,0003.45
2022-07-09 11:54:00,,0832.6,5.01,0.00,30.2,29.1,00.0,38.9,32.1,22.2,0000.0,0010.38,0004.00,0003.43
2022-07-09 11:55:00,,0832.6,5.00,0.00,30.2,28.9,00.0,38.9,32.0,22.3,0000.0,0009.23,0003.94,0003.40
2022-07-09 11:56:00,,0832.6,5.01,0.00,30.1,28.1,00.0,38.8,31.9,22.7,0000.0,0008.39,0003.93,0003.39
2022-07-09 11:57:00,,0832.7,5.00,0.00,30.1,27.7,00.0,38.8,31.8,22.9,0000.0,0008.46,0003.92,0003.38
2022-07-09 11:58:00,,0832.7,4.99,0.00,30.0,27.6,00.0,38.8,31.7,24.1,0000.0,0008.71,0003.93,0003.37
2022-07-09 11:59:00,,0832.7,4.99,0.00,29.9,27.7,00.0,38.7,31.6,25.2,0000.0,0008.80,0003.97,0003.40
